DLH2NH EDDM-EDDH

Flight info

Callsign DLH2NH
Flight time 0h 58m
Altitude 36000
Route INPUD Y102 UPALA M726 NARUS DCT ABGUS DCT DIRBO T902 RARUP
Aircraft A320/M-SDE3FGHIRWY/LB1

Departure

Time 2026-05-07 16:19
Airport Munich Airport (EDDM)

Arrival

Time 2026-05-07 17:17
Airport Hamburg Helmut Schmidt Airport (EDDH)
Time Latitude Longitude Altitude Speed Heading
2026-05-07 15:55 48.35693 11.79694 1486 ft 0 kts 83°
2026-05-07 16:08 48.35691 11.79670 1473 ft 4 kts 83°
2026-05-07 16:08 48.35688 11.79630 1475 ft 4 kts 83°
2026-05-07 16:09 48.35686 11.79597 1476 ft 4 kts 76°
2026-05-07 16:09 48.35675 11.79563 1479 ft 4 kts 34°
2026-05-07 16:09 48.35653 11.79555 1475 ft 4 kts 353°
2026-05-07 16:09 48.35641 11.79558 1478 ft 0 kts 353°
2026-05-07 16:11 48.35641 11.79557 1478 ft 0 kts 353°
2026-05-07 16:11 48.35660 11.79554 1476 ft 5 kts 354°
2026-05-07 16:11 48.35715 11.79546 1483 ft 10 kts 353°
2026-05-07 16:12 48.35797 11.79531 1473 ft 13 kts 354°
2026-05-07 16:12 48.35885 11.79516 1480 ft 12 kts 353°
2026-05-07 16:12 48.35972 11.79501 1479 ft 13 kts 353°
2026-05-07 16:12 48.36070 11.79484 1480 ft 15 kts 353°
2026-05-07 16:13 48.36171 11.79469 1480 ft 14 kts
2026-05-07 16:13 48.36222 11.79587 1471 ft 15 kts 85°
2026-05-07 16:13 48.36233 11.79733 1485 ft 13 kts 83°
2026-05-07 16:13 48.36243 11.79860 1485 ft 11 kts 83°
2026-05-07 16:14 48.36253 11.79972 1477 ft 10 kts 83°
2026-05-07 16:14 48.36260 11.80067 1485 ft 8 kts 84°
2026-05-07 16:14 48.36265 11.80148 1473 ft 7 kts 84°
2026-05-07 16:14 48.36273 11.80248 1485 ft 13 kts 83°
2026-05-07 16:15 48.36283 11.80377 1482 ft 12 kts 83°
2026-05-07 16:15 48.36292 11.80490 1478 ft 10 kts 83°
2026-05-07 16:15 48.36294 11.80513 1475 ft 2 kts 83°
2026-05-07 16:15 48.36299 11.80578 1485 ft 11 kts 83°
2026-05-07 16:16 48.36309 11.80710 1475 ft 12 kts 83°
2026-05-07 16:16 48.36318 11.80830 1482 ft 12 kts 83°
2026-05-07 16:16 48.36331 11.80998 1485 ft 20 kts 83°
2026-05-07 16:16 48.36349 11.81230 1480 ft 23 kts 83°
2026-05-07 16:17 48.36369 11.81479 1481 ft 25 kts 83°
2026-05-07 16:17 48.36389 11.81742 1480 ft 26 kts 83°
2026-05-07 16:17 48.36396 11.81938 1485 ft 14 kts 88°
2026-05-07 16:17 48.36469 11.82000 1476 ft 14 kts 354°
2026-05-07 16:18 48.36571 11.81980 1476 ft 16 kts 354°
2026-05-07 16:18 48.36663 11.81955 1474 ft 12 kts 325°
2026-05-07 16:18 48.36668 11.81832 1475 ft 15 kts 262°
2026-05-07 16:18 48.36637 11.81413 1475 ft 76 kts 263°
2026-05-07 16:19 48.36585 11.80741 1485 ft 118 kts 263°
2026-05-07 16:19 48.36428 11.78691 1696 ft 163 kts 266°
2026-05-07 16:19 48.36323 11.77007 2552 ft 161 kts 266°
2026-05-07 16:19 48.36199 11.75275 3063 ft 175 kts 265°
2026-05-07 16:20 48.36053 11.73335 3390 ft 199 kts 265°
2026-05-07 16:20 48.35883 11.71145 3857 ft 219 kts 264°
2026-05-07 16:20 48.35760 11.69593 4394 ft 223 kts 264°
2026-05-07 16:20 48.35831 11.67270 5247 ft 227 kts 291°
2026-05-07 16:21 48.36832 11.65406 5880 ft 245 kts 326°
2026-05-07 16:21 48.38499 11.64422 6418 ft 268 kts 345°
2026-05-07 16:21 48.40369 11.63921 6883 ft 277 kts 350°
2026-05-07 16:21 48.42282 11.63572 7002 ft 277 kts 351°
2026-05-07 16:22 48.44199 11.63221 7028 ft 277 kts 350°
2026-05-07 16:22 48.46109 11.62811 7027 ft 277 kts 348°
2026-05-07 16:22 48.48011 11.62341 7106 ft 278 kts 347°
2026-05-07 16:22 48.49922 11.61824 7978 ft 280 kts 347°
2026-05-07 16:23 48.51636 11.61341 8805 ft 283 kts 346°
2026-05-07 16:23 48.52833 11.60996 9354 ft 286 kts 346°
2026-05-07 16:23 48.54803 11.60419 10201 ft 291 kts 346°
2026-05-07 16:23 48.56799 11.59807 10994 ft 294 kts 342°
2026-05-07 16:24 48.58774 11.58796 11446 ft 311 kts 336°
2026-05-07 16:24 48.60873 11.57581 11693 ft 335 kts 336°
2026-05-07 16:24 48.63085 11.56278 12207 ft 346 kts 336°
2026-05-07 16:24 48.65352 11.54945 12935 ft 351 kts 336°
2026-05-07 16:25 48.67643 11.53604 13693 ft 356 kts 336°
2026-05-07 16:25 48.69970 11.52254 14369 ft 359 kts 336°
2026-05-07 16:25 48.72315 11.50898 15050 ft 363 kts 336°
2026-05-07 16:25 48.74691 11.49526 15743 ft 366 kts 336°
2026-05-07 16:26 48.77081 11.48140 16441 ft 369 kts 336°
2026-05-07 16:26 48.79492 11.46739 17137 ft 373 kts 336°
2026-05-07 16:26 48.81926 11.45325 17804 ft 376 kts 336°
2026-05-07 16:26 48.84383 11.43894 18447 ft 380 kts 336°
2026-05-07 16:27 48.86858 11.42453 19039 ft 383 kts 336°
2026-05-07 16:27 48.89360 11.40996 19625 ft 386 kts 336°
2026-05-07 16:27 48.91874 11.39528 20188 ft 389 kts 336°
2026-05-07 16:27 48.94414 11.38041 20733 ft 392 kts 336°
2026-05-07 16:28 48.96965 11.36546 21282 ft 395 kts 336°
2026-05-07 16:28 48.99539 11.35039 21810 ft 398 kts 336°
2026-05-07 16:28 49.02137 11.33520 22328 ft 401 kts 336°
2026-05-07 16:28 49.04697 11.32020 22822 ft 404 kts 336°
2026-05-07 16:29 49.07331 11.30471 23331 ft 407 kts 336°
2026-05-07 16:29 49.09981 11.28910 23788 ft 410 kts 336°
2026-05-07 16:29 49.12649 11.27332 24211 ft 413 kts 336°
2026-05-07 16:29 49.14973 11.25958 24570 ft 415 kts 336°
2026-05-07 16:30 49.16779 11.24891 24843 ft 417 kts 336°
2026-05-07 16:30 49.18559 11.23890 25067 ft 419 kts 338°
2026-05-07 16:30 49.21392 11.22712 25467 ft 425 kts 347°
2026-05-07 16:30 49.23296 11.22291 25710 ft 429 kts 353°
2026-05-07 16:31 49.26288 11.22173 26091 ft 433 kts 358°
2026-05-07 16:31 49.29312 11.22189 26468 ft 436 kts 358°
2026-05-07 16:31 49.32355 11.22211 26846 ft 438 kts 358°
2026-05-07 16:31 49.35413 11.22241 27218 ft 441 kts 358°
2026-05-07 16:32 49.38486 11.22272 27589 ft 444 kts 358°
2026-05-07 16:32 49.41590 11.22301 27944 ft 447 kts 358°
2026-05-07 16:32 49.44708 11.22330 28303 ft 450 kts 358°
2026-05-07 16:32 49.47846 11.22355 28642 ft 452 kts 358°
2026-05-07 16:33 49.51007 11.22380 28978 ft 455 kts 358°
2026-05-07 16:33 49.54181 11.22412 29275 ft 458 kts 358°
2026-05-07 16:33 49.57380 11.22438 29589 ft 460 kts 358°
2026-05-07 16:33 49.60594 11.22451 29901 ft 463 kts 358°
2026-05-07 16:34 49.63821 11.22449 30189 ft 465 kts 358°
2026-05-07 16:34 49.67068 11.22443 30442 ft 468 kts 358°
2026-05-07 16:34 49.70334 11.22437 30694 ft 470 kts 358°
2026-05-07 16:34 49.73608 11.22437 31037 ft 470 kts 358°
2026-05-07 16:35 49.76873 11.22445 31394 ft 470 kts 358°
2026-05-07 16:35 49.80103 11.22458 31728 ft 470 kts 358°
2026-05-07 16:35 49.83370 11.22477 32065 ft 470 kts 358°
2026-05-07 16:35 49.86647 11.22502 32422 ft 470 kts 358°
2026-05-07 16:36 49.89892 11.22528 32776 ft 470 kts 357°
2026-05-07 16:36 49.92732 11.22552 33077 ft 471 kts 357°
2026-05-07 16:36 49.95444 11.22572 33356 ft 471 kts 357°
2026-05-07 16:36 49.98717 11.22592 33695 ft 471 kts 357°
2026-05-07 16:37 50.01994 11.22607 34025 ft 471 kts 357°
2026-05-07 16:37 50.05281 11.22623 34296 ft 472 kts 357°
2026-05-07 16:37 50.08566 11.22643 34579 ft 472 kts 357°
2026-05-07 16:37 50.11851 11.22666 34877 ft 472 kts 357°
2026-05-07 16:38 50.15134 11.22689 35173 ft 472 kts 357°
2026-05-07 16:38 50.18415 11.22710 35446 ft 472 kts 357°
2026-05-07 16:38 50.21698 11.22727 35711 ft 472 kts 357°
2026-05-07 16:38 50.24977 11.22743 35959 ft 472 kts 357°
2026-05-07 16:39 50.28263 11.22761 36036 ft 472 kts 357°
2026-05-07 16:39 50.34825 11.22808 36043 ft 471 kts 357°
2026-05-07 16:40 50.41327 11.22034 36043 ft 468 kts 351°
2026-05-07 16:40 50.47805 11.21038 36048 ft 467 kts 351°
2026-05-07 16:41 50.54274 11.20057 36049 ft 467 kts 351°
2026-05-07 16:41 50.55364 11.19892 36050 ft 467 kts 351°
2026-05-07 16:42 50.58299 11.19488 36054 ft 467 kts 352°
2026-05-07 16:42 50.64016 11.18647 36059 ft 467 kts 351°
2026-05-07 16:43 50.70485 11.17676 36068 ft 467 kts 353°
2026-05-07 16:43 50.76974 11.16988 36070 ft 468 kts 354°
2026-05-07 16:44 50.83476 11.16402 36071 ft 468 kts 354°
2026-05-07 16:44 50.89963 11.15768 36070 ft 467 kts 354°
2026-05-07 16:45 50.96459 11.15076 36064 ft 467 kts 353°
2026-05-07 16:45 51.02947 11.14369 36047 ft 468 kts 353°
2026-05-07 16:46 51.09447 11.13669 36048 ft 468 kts 354°
2026-05-07 16:46 51.15948 11.12981 36055 ft 469 kts 354°
2026-05-07 16:47 51.22420 11.12299 36062 ft 469 kts 354°
2026-05-07 16:47 51.28946 11.11604 36062 ft 470 kts 354°
2026-05-07 16:48 51.34829 11.10971 36066 ft 470 kts 353°
2026-05-07 16:48 51.41371 11.10263 36079 ft 471 kts 354°
2026-05-07 16:49 51.47906 11.09560 36076 ft 470 kts 353°
2026-05-07 16:49 51.54436 11.08859 36075 ft 470 kts 353°
2026-05-07 16:50 51.60965 11.08158 36085 ft 470 kts 353°
2026-05-07 16:50 51.67497 11.07441 36090 ft 470 kts 353°
2026-05-07 16:51 51.74025 11.06726 36098 ft 470 kts 353°
2026-05-07 16:51 51.80554 11.06014 36098 ft 470 kts 353°
2026-05-07 16:52 51.87030 11.05305 36097 ft 469 kts 353°
2026-05-07 16:52 51.93514 11.04162 36099 ft 468 kts 349°
2026-05-07 16:53 51.99959 11.02631 36094 ft 468 kts 348°
2026-05-07 16:53 52.06334 11.01128 36095 ft 469 kts 349°
2026-05-07 16:54 52.12803 10.99733 36094 ft 469 kts 349°
2026-05-07 16:54 52.19275 10.98380 36096 ft 469 kts 349°
2026-05-07 16:55 52.25755 10.97001 36102 ft 469 kts 349°
2026-05-07 16:55 52.32230 10.95607 36106 ft 469 kts 349°
2026-05-07 16:56 52.38700 10.94199 36105 ft 469 kts 349°
2026-05-07 16:56 52.48412 10.92065 36000 ft 470 kts 349°
2026-05-07 16:57 52.51645 10.91356 35438 ft 471 kts 349°
2026-05-07 16:57 52.54928 10.90636 34477 ft 478 kts 349°
2026-05-07 16:57 52.58233 10.89912 33445 ft 482 kts 349°
2026-05-07 16:57 52.61578 10.89184 32519 ft 484 kts 350°
2026-05-07 16:58 52.64911 10.88459 31387 ft 481 kts 350°
2026-05-07 16:58 52.68212 10.87744 30405 ft 472 kts 350°
2026-05-07 16:58 52.71398 10.87054 29793 ft 454 kts 350°
2026-05-07 16:58 52.73763 10.86537 29272 ft 451 kts 350°
2026-05-07 16:59 52.76878 10.85847 28608 ft 447 kts 350°
2026-05-07 16:59 52.79948 10.85160 27963 ft 443 kts 350°
2026-05-07 16:59 52.82987 10.84477 27317 ft 439 kts 350°
2026-05-07 16:59 52.85967 10.83823 26669 ft 436 kts 351°
2026-05-07 17:00 52.88967 10.83201 26016 ft 433 kts 351°
2026-05-07 17:00 52.91996 10.82597 25360 ft 431 kts 351°
2026-05-07 17:00 52.94924 10.82021 24733 ft 428 kts 351°
2026-05-07 17:00 52.97872 10.81436 24107 ft 426 kts 351°
2026-05-07 17:01 53.00807 10.80844 23487 ft 423 kts 351°
2026-05-07 17:01 53.03714 10.80253 22862 ft 419 kts 351°
2026-05-07 17:01 53.06589 10.79669 22337 ft 413 kts 351°
2026-05-07 17:01 53.09428 10.79073 21797 ft 409 kts 348°
2026-05-07 17:02 53.12113 10.77697 21206 ft 401 kts 330°
2026-05-07 17:02 53.14342 10.75010 20570 ft 393 kts 310°
2026-05-07 17:02 53.15875 10.71323 19944 ft 385 kts 291°
2026-05-07 17:02 53.16765 10.67151 19359 ft 381 kts 285°
2026-05-07 17:03 53.17561 10.62954 18784 ft 379 kts 284°
2026-05-07 17:03 53.18352 10.58775 18184 ft 377 kts 284°
2026-05-07 17:03 53.19143 10.54610 17514 ft 377 kts 284°
2026-05-07 17:03 53.19929 10.50447 16858 ft 376 kts 284°
2026-05-07 17:04 53.20709 10.46288 16234 ft 375 kts 284°
2026-05-07 17:04 53.21482 10.42153 15645 ft 373 kts 284°
2026-05-07 17:04 53.22249 10.38028 15080 ft 371 kts 284°
2026-05-07 17:04 53.23006 10.33921 14517 ft 369 kts 284°
2026-05-07 17:05 53.23260 10.32537 14327 ft 369 kts 284°
2026-05-07 17:05 53.24120 10.27804 13668 ft 367 kts 284°
2026-05-07 17:05 53.24847 10.23765 13039 ft 356 kts 284°
2026-05-07 17:05 53.25315 10.21129 12638 ft 345 kts 284°
2026-05-07 17:06 53.25979 10.17363 12071 ft 331 kts 284°
2026-05-07 17:06 53.26611 10.13746 11567 ft 318 kts 284°
2026-05-07 17:06 53.27209 10.10259 11124 ft 306 kts 284°
2026-05-07 17:06 53.27767 10.06907 10737 ft 294 kts 284°
2026-05-07 17:07 53.28299 10.03609 10367 ft 294 kts 284°
2026-05-07 17:07 53.28813 10.00317 10038 ft 292 kts 284°
2026-05-07 17:07 53.29311 9.97026 9677 ft 291 kts 284°
2026-05-07 17:07 53.29794 9.93753 9296 ft 290 kts 284°
2026-05-07 17:08 53.30325 9.90560 8935 ft 287 kts 295°
2026-05-07 17:08 53.31287 9.87679 8563 ft 283 kts 303°
2026-05-07 17:08 53.32336 9.84906 8173 ft 280 kts 304°
2026-05-07 17:08 53.33363 9.82205 7791 ft 269 kts 304°
2026-05-07 17:09 53.34343 9.79613 7402 ft 259 kts 304°
2026-05-07 17:09 53.35288 9.77096 7015 ft 253 kts 304°
2026-05-07 17:09 53.36224 9.74595 6599 ft 254 kts 304°
2026-05-07 17:09 53.37149 9.72122 6160 ft 247 kts 304°
2026-05-07 17:10 53.38049 9.69702 5764 ft 244 kts 304°
2026-05-07 17:10 53.38959 9.67299 5413 ft 243 kts 309°
2026-05-07 17:10 53.40232 9.65571 5093 ft 233 kts 342°
2026-05-07 17:10 53.41790 9.65274 4769 ft 224 kts 14°
2026-05-07 17:11 53.43264 9.66039 4484 ft 221 kts 23°
2026-05-07 17:11 53.44579 9.66900 4220 ft 220 kts 24°
2026-05-07 17:11 53.46000 9.67852 3961 ft 219 kts 24°
2026-05-07 17:11 53.47365 9.68767 3731 ft 217 kts 24°
2026-05-07 17:12 53.48658 9.69983 3500 ft 211 kts 45°
2026-05-07 17:12 53.49604 9.71803 3327 ft 205 kts 51°
2026-05-07 17:12 53.50511 9.73620 3138 ft 200 kts 51°
2026-05-07 17:12 53.51394 9.75388 3041 ft 194 kts 51°
2026-05-07 17:13 53.52251 9.77106 2995 ft 188 kts 51°
2026-05-07 17:13 53.53081 9.78769 2957 ft 184 kts 51°
2026-05-07 17:13 53.53901 9.80415 2761 ft 183 kts 51°
2026-05-07 17:13 53.54713 9.82045 2537 ft 180 kts 51°
2026-05-07 17:14 53.55515 9.83657 2283 ft 180 kts 50°
2026-05-07 17:14 53.56310 9.85257 2055 ft 175 kts 51°
2026-05-07 17:14 53.57061 9.86766 1839 ft 160 kts 50°
2026-05-07 17:14 53.57740 9.88132 1613 ft 145 kts 51°
2026-05-07 17:15 53.58371 9.89402 1401 ft 139 kts 50°
2026-05-07 17:15 53.58982 9.90634 1183 ft 135 kts 51°
2026-05-07 17:15 53.59570 9.91819 937 ft 132 kts 50°
2026-05-07 17:15 53.60157 9.93003 702 ft 132 kts 50°
2026-05-07 17:16 53.60749 9.94198 485 ft 134 kts 51°
2026-05-07 17:16 53.61345 9.95413 326 ft 135 kts 51°
2026-05-07 17:16 53.61952 9.96622 107 ft 134 kts 51°
2026-05-07 17:16 53.62524 9.97785 41 ft 115 kts 51°
2026-05-07 17:17 53.62914 9.98575 44 ft 65 kts 50°
2026-05-07 17:17 53.63172 9.99096 47 ft 53 kts 50°
2026-05-07 17:17 53.63292 9.99461 47 ft 19 kts 85°
2026-05-07 17:17 53.63284 9.99586 45 ft 0 kts 99°
2026-05-07 17:18 53.63283 9.99590 45 ft 2 kts 99°
2026-05-07 17:18 53.63278 9.99644 48 ft 7 kts 99°
2026-05-07 17:19 53.63241 9.99743 47 ft 13 kts 146°
2026-05-07 17:19 53.63149 9.99832 48 ft 16 kts 139°
2026-05-07 17:19 53.63159 9.99994 48 ft 16 kts 48°
2026-05-07 17:19 53.63218 10.00112 48 ft 7 kts 50°
2026-05-07 17:20 53.63219 10.00114 48 ft 0 kts 50°
2026-05-07 17:20 53.63236 10.00150 48 ft 4 kts 53°
2026-05-07 17:20 53.63255 10.00209 48 ft 6 kts 66°
2026-05-07 17:20 53.63284 10.00248 48 ft 5 kts 36°
2026-05-07 17:21 53.63290 10.00292 48 ft 3 kts 88°
2026-05-07 17:21 53.63291 10.00327 48 ft 3 kts 88°
2026-05-07 17:21 53.63291 10.00357 48 ft 0 kts 88°
2026-05-07 17:21 53.63292 10.00360 48 ft 1 kts 88°